Theta_e
294 284 282 282 284 286 288 288 288 288 288 287 286 285 283 282 284 285 286 291 294 295 295 296 297 298 300 302 303 305 301 305 306 306 306 307 308 308 306 304 308 313 316 320 323 324 324 324 326 326 326 325 325 326 327 327 327 328 329 329 329 330 332 333 333 333 333 332 332 333 332 331 333 333 334 334 334 334 334 334 333 332 331 330 328 326
288 281 282 285 286 288 288 287 287 287 287 285 285 284 284 284 282 285 287 290 292 293 293 297 297 297 299 301 300 302 303 301 304 306 306 306 307 308 310 309 306 307 310 315 318 320 322 322 323 325 325 323 323 324 326 326 327 327 328 328 329 330 330 331 332 332 332 333 333 332 332 333 333 333 332 332 333 334 334 334 334 333 333 332 330 327
283 280 284 288 290 290 287 286 287 285 284 284 283 282 282 282 283 287 287 288 290 291 290 294 295 296 299 301 302 302 302 304 302 305 307 307 307 307 309 310 311 310 309 308 311 316 318 319 320 323 324 325 325 325 325 326 326 326 326 327 328 329 329 330 331 332 331 333 334 334 333 333 333 335 335 334 334 334 334 334 334 334 334 333 332 331
277 282 286 290 291 288 286 285 286 286 286 284 282 280 278 281 281 279 286 287 290 288 286 288 292 295 298 300 301 304 304 304 304 304 305 307 307 307 309 311 312 313 314 314 311 309 312 315 318 321 323 324 325 325 325 325 325 326 326 327 327 328 329 330 330 329 332 332 332 333 333 333 333 332 332 333 333 333 332 332 333 333 333 333 333 332
280 285 289 290 290 288 284 285 285 284 283 285 284 282 280 280 280 283 282 286 288 287 288 287 286 288 291 293 296 301 304 304 305 306 304 305 307 309 310 312 313 313 314 314 316 314 310 310 314 318 321 323 324 325 325 326 326 326 326 327 327 328 329 329 329 329 330 329 327 329 325 324 325 324 327 328 329 330 330 331 332 332 333 333 333 333
283 287 289 287 287 287 285 284 285 284 282 282 284 283 283 282 281 281 283 284 282 281 285 285 280 282 288 291 294 297 300 301 303 303 305 305 303 304 305 309 311 313 314 313 314 314 314 311 311 316 320 321 323 324 326 327 327 327 327 327 327 328 328 329 329 329 329 327 328 327 326 324 326 326 326 325 326 328 328 329 331 332 332 332 332 332
285 289 288 286 286 285 285 285 285 285 281 280 280 283 282 282 281 281 280 282 277 278 282 287 278 277 285 286 289 293 297 299 301 301 303 305 305 302 303 306 308 310 312 313 314 314 316 316 312 311 316 320 322 323 326 327 327 327 327 327 327 327 328 329 328 329 327 327 327 327 327 327 326 325 326 328 329 328 329 329 328 330 330 330 330 330
284 286 286 285 285 285 283 283 285 286 282 280 286 286 282 280 279 279 280 280 279 282 283 284 286 279 279 285 289 291 292 297 299 300 301 303 304 304 302 303 304 306 308 310 311 312 312 313 314 313 313 318 321 323 325 325 326 327 327 327 327 328 327 329 329 328 327 327 327 326 326 326 326 326 326 327 327 326 325 324 326 326 326 326 327 328
283 284 285 284 284 283 282 285 287 288 284 284 287 288 286 285 280 279 279 278 278 279 276 279 283 279 277 283 288 290 289 290 294 297 300 301 303 304 305 305 303 304 305 306 307 308 311 311 312 314 315 317 321 323 323 324 326 327 327 327 327 327 327 328 328 327 327 327 327 326 326 325 325 326 326 326 322 323 322 321 321 322 323 323 323 325
283 285 284 286 284 283 286 287 288 288 284 287 289 290 288 286 283 281 277 277 277 274 271 277 280 274 277 281 286 286 288 288 291 295 297 299 301 302 303 305 306 304 304 305 306 307 309 311 310 312 313 314 318 322 323 324 325 326 326 326 325 326 327 328 327 327 327 326 326 326 325 324 325 325 325 325 321 320 321 322 321 321 321 321 321 322
287 291 290 286 285 288 286 286 289 289 289 291 289 286 286 285 284 282 279 277 271 265 271 277 278 278 273 280 284 284 285 288 289 291 294 296 297 300 302 303 305 307 306 305 306 307 308 309 310 309 310 312 314 318 322 323 324 325 325 326 325 326 327 327 327 327 327 327 326 326 326 325 324 325 324 323 322 319 318 320 321 321 321 320 320 320
284 285 286 287 287 288 288 287 288 287 290 289 284 283 283 282 283 281 279 275 269 265 272 276 277 279 271 276 284 287 288 289 291 290 292 293 295 297 298 301 303 305 307 307 307 307 307 307 307 306 307 309 311 313 316 320 322 323 324 324 324 325 326 327 327 327 327 327 326 326 326 326 326 325 325 323 322 322 320 320 321 319 318 318 319 319
280 282 284 285 289 288 284 283 286 289 288 287 285 284 277 274 276 273 277 271 270 271 274 275 276 271 274 279 280 282 284 287 289 292 293 294 295 296 297 298 301 303 304 306 307 307 307 307 307 307 306 306 308 310 312 316 319 321 323 323 323 324 325 326 327 326 326 326 326 326 326 326 326 326 325 324 323 323 322 321 320 318 318 318 317 318
276 281 282 284 285 286 284 281 281 280 284 285 282 280 276 272 271 270 272 274 274 275 277 274 276 274 276 279 283 283 286 287 289 291 293 295 296 298 299 300 301 302 303 304 305 306 306 306 307 307 306 306 307 308 311 312 315 318 321 322 323 324 325 325 325 326 326 326 326 327 326 326 326 325 325 325 324 323 323 322 321 320 319 319 319 319
268 270 278 281 279 285 284 283 283 282 284 284 284 281 279 277 273 270 271 269 271 273 277 280 274 269 273 276 280 284 284 286 289 291 292 294 296 297 298 297 296 297 299 301 301 303 304 306 306 307 308 307 307 308 309 311 313 316 317 319 320 322 323 324 325 325 325 325 326 326 327 327 326 326 325 325 325 324 323 322 321 321 320 320 320 320
272 273 279 284 283 284 283 285 285 283 281 282 284 284 277 275 281 273 274 272 270 272 272 276 275 275 278 283 286 285 284 286 288 289 289 290 292 293 293 295 296 296 297 298 297 298 299 299 300 303 305 307 307 307 307 309 312 314 316 318 319 320 322 324 324 325 325 326 326 326 326 326 326 325 325 325 324 324 324 323 322 322 321 321 321 321
275 273 281 282 282 283 283 283 285 285 273 278 281 276 280 286 282 275 275 278 278 274 272 280 279 282 284 287 286 285 284 285 286 287 288 288 289 290 291 292 293 294 295 296 296 297 297 298 298 299 299 301 304 306 307 308 309 311 313 315 316 318 320 322 323 324 325 325 325 325 326 326 325 325 324 325 325 324 324 324 323 322 322 321 320 320
273 274 282 278 278 281 283 282 284 285 286 280 275 280 285 287 285 279 271 274 273 271 272 278 276 277 277 274 282 285 283 284 285 285 286 287 288 289 290 291 292 292 293 295 296 296 297 297 297 298 299 299 300 302 304 306 308 308 310 312 314 315 316 319 321 322 323 324 324 325 325 325 326 326 325 325 325 325 324 323 322 322 320 320 321 321
280 272 277 277 278 281 283 281 280 283 285 284 281 282 278 273 275 278 276 268 267 267 269 274 277 277 277 278 280 281 282 283 284 285 286 286 287 287 289 290 291 292 293 294 294 296 297 297 297 297 298 299 299 300 301 303 305 307 308 309 311 313 315 317 319 320 321 323 324 324 324 325 325 326 326 326 325 324 323 322 321 321 321 321 319 318
281 273 274 279 278 279 278 277 271 277 281 279 285 284 283 281 278 275 275 277 274 270 271 271 276 273 279 278 281 281 282 284 284 285 285 286 286 287 288 289 290 291 292 293 294 295 297 297 297 297 297 297 298 299 300 301 302 303 305 307 308 309 310 312 314 315 317 319 322 323 323 323 324 325 325 325 324 323 323 322 322 321 319 320 319 319
278 277 268 276 279 276 271 276 274 276 274 277 278 278 280 278 283 281 278 274 273 272 271 272 269 275 279 282 281 283 284 284 284 284 285 285 286 287 287 288 290 291 292 292 293 294 296 296 297 297 297 297 297 297 298 299 300 301 302 304 306 306 307 307 310 312 313 315 317 319 320 321 322 323 324 323 323 323 323 323 321 321 321 319 318 318
274 276 270 274 274 271 273 278 279 278 279 279 279 277 278 276 272 269 269 279 275 272 270 269 267 276 283 288 287 287 287 285 284 284 285 286 286 287 288 289 289 290 291 292 293 294 295 295 296 296 296 296 296 297 297 299 299 300 300 302 302 304 305 306 307 308 311 312 313 314 317 319 320 321 322 321 322 320 322 321 321 320 318 317 319 317
280 279 275 270 272 274 276 278 277 278 278 276 280 277 278 276 275 268 264 269 272 271 275 271 269 272 282 287 285 284 284 285 285 285 285 286 286 287 288 288 289 289 290 291 292 293 294 294 294 294 294 294 295 296 297 297 298 299 300 301 302 303 304 305 307 308 309 310 310 311 313 315 317 317 317 318 319 318 319 319 319 317 317 317 317 316
283 270 270 271 270 272 275 274 278 277 280 276 276 277 276 274 273 271 272 274 270 271 268 269 268 274 281 283 283 282 283 284 286 285 285 286 287 287 287 288 288 288 289 290 290 291 292 292 292 292 293 294 295 296 296 297 298 299 300 301 302 303 304 304 305 307 307 308 309 310 311 311 313 313 314 315 316 316 317 318 318 315 316 317 316 315
275 273 273 266 265 265 267 269 270 268 271 273 274 276 277 277 275 274 273 273 269 268 271 268 265 272 280 280 283 282 283 283 284 285 286 285 286 287 288 288 289 289 289 289 289 290 291 291 291 292 292 293 294 294 295 296 297 298 299 300 301 303 304 304 304 304 305 305 306 306 306 308 309 309 310 312 314 314 315 315 316 314 314 314 313 314
278 276 272 265 262 259 259 257 260 266 272 275 275 277 277 277 275 273 265 268 267 270 272 267 268 277 281 282 281 282 282 282 283 285 286 286 286 287 287 288 289 289 289 289 289 289 289 290 290 291 292 292 293 293 294 295 296 297 298 299 300 301 302 303 303 302 303 303 303 304 303 304 304 306 308 309 310 311 313 313 311 311 309 310 312 309
273 277 276 273 270 267 268 270 274 277 276 273 275 276 276 276 276 275 274 270 267 269 267 272 273 274 276 278 279 281 281 281 282 284 284 286 287 287 287 288 288 289 289 289 289 290 289 289 290 291 291 292 292 292 293 294 295 295 296 297 298 299 299 300 299 300 300 301 299 302 302 302 302 305 305 306 308 308 307 307 305 305 308 305 308 306
271 272 275 276 275 275 276 275 276 277 275 276 275 275 276 275 276 275 271 270 274 269 267 274 275 274 275 277 279 280 281 282 282 283 284 285 286 286 286 287 289 288 289 289 290 290 290 290 290 291 291 292 292 292 293 293 293 293 294 295 297 297 296 297 296 296 296 296 297 299 302 302 301 302 303 304 303 304 302 303 301 304 304 300 304 304
270 268 273 274 272 275 276 275 276 276 276 276 275 274 273 275 274 271 272 275 275 271 269 274 275 273 276 278 280 281 281 282 283 283 284 284 285 285 286 286 286 287 288 288 289 290 290 290 291 291 291 292 292 292 292 293 293 294 294 294 295 295 296 294 292 294 294 294 296 299 300 298 295 297 297 296 299 300 302 303 302 299 298 299 301 303
268 264 267 269 271 273 273 273 274 272 272 272 272 273 274 274 274 274 274 276 275 274 275 275 276 275 278 279 280 282 283 283 283 283 283 283 283 284 284 285 285 285 286 288 289 290 290 291 291 291 291 291 292 292 292 293 293 294 294 295 295 295 296 293 294 293 294 294 296 297 294 293 292 294 294 296 298 299 298 297 296 295 295 296 297 297
270 266 274 267 265 265 270 272 271 271 271 270 273 273 274 274 274 274 274 275 276 274 276 275 275 275 279 281 281 282 281 281 280 279 280 281 282 283 283 283 284 285 286 287 288 289 290 290 291 291 291 291 291 291 292 292 293 293 293 294 294 295 296 293 294 294 293 295 296 294 292 292 294 293 294 296 295 293 293 295 292 292 293 293 292 293
270 267 267 262 263 261 267 269 271 272 272 270 270 272 272 272 270 273 272 275 272 271 274 273 272 273 278 279 279 278 277 277 276 278 279 280 282 282 282 284 284 285 285 286 287 288 288 289 290 290 290 290 290 291 291 291 292 292 292 293 294 294 294 293 293 294 294 295 295 293 294 293 292 291 293 292 293 293 292 290 290 291 292 291 290 290
262 262 262 262 264 264 268 270 271 271 269 265 263 269 272 273 274 274 274 276 276 277 274 270 272 276 277 278 275 275 275 276 276 277 279 280 282 282 283 284 284 284 285 285 285 286 287 288 289 290 290 290 290 290 290 291 290 291 292 292 293 293 293 293 293 294 294 295 294 294 292 291 291 292 291 291 291 289 289 289 290 290 291 291 290 290
268 269 267 271 265 267 270 271 272 268 263 262 271 277 276 275 275 273 274 275 277 277 276 277 276 276 276 275 274 274 275 275 276 278 281 281 282 283 284 283 283 284 284 285 285 286 287 288 289 290 290 289 289 289 290 290 290 291 292 292 292 292 293 293 293 293 294 294 294 293 291 291 291 291 290 289 288 287 287 289 292 290 289 289 289 291
267 269 266 270 268 267 271 271 267 263 263 273 277 278 278 277 276 275 276 276 276 276 276 274 274 274 275 275 275 276 276 277 278 279 281 282 283 283 282 282 282 283 284 284 285 285 286 287 288 289 288 288 288 288 289 289 290 291 291 291 291 291 292 292 292 293 293 294 295 293 290 290 290 290 289 287 287 287 288 290 289 289 289 290 291 292
266 267 268 270 270 271 269 269 262 263 270 276 277 278 278 276 275 276 274 275 274 273 274 272 273 273 274 274 275 276 276 276 278 279 281 283 284 282 281 281 282 283 283 284 284 285 285 286 287 287 288 289 288 287 288 288 289 289 290 290 290 291 291 292 292 293 293 293 294 294 294 291 290 289 288 287 286 287 289 289 290 291 288 288 287 286
271 271 272 268 274 266 268 266 266 273 273 274 275 274 274 273 273 273 269 274 276 276 274 274 274 274 274 274 275 275 276 276 275 277 281 281 281 281 281 281 282 283 284 285 285 285 286 287 287 288 288 287 287 287 287 288 288 288 289 289 290 290 291 291 292 292 293 293 294 294 294 293 292 290 289 287 288 288 289 289 289 289 287 288 288 289
274 270 273 270 270 273 268 266 266 264 260 265 274 276 276 276 276 277 274 272 275 277 276 275 274 275 275 275 275 275 276 273 272 274 279 279 279 279 280 281 282 283 284 285 285 285 285 286 287 287 287 286 286 286 287 288 288 287 288 288 289 289 290 290 290 292 292 293 294 294 294 294 292 292 290 288 289 290 290 289 287 288 287 290 289 289
273 274 274 272 270 270 267 264 263 259 263 271 273 274 274 274 276 276 270 267 273 273 274 275 274 275 275 275 275 276 273 270 271 275 279 278 278 278 278 279 280 282 284 284 284 283 284 285 286 286 286 285 284 286 287 287 287 287 287 288 288 289 289 289 290 291 292 293 293 293 293 293 292 292 291 291 291 291 290 290 290 289 287 288 289 288
268 269 271 269 268 268 265 263 261 262 263 271 274 274 273 273 276 273 262 263 272 273 275 275 274 275 275 275 275 274 272 269 271 275 278 278 278 278 278 278 279 281 283 283 283 282 282 284 284 284 284 284 284 286 286 287 287 286 286 287 288 288 288 289 290 291 292 292 292 292 292 292 292 292 292 292 292 290 290 288 287 288 287 287 287 287
262 263 263 263 262 264 267 262 261 263 272 275 275 274 273 276 274 261 260 268 273 274 275 275 274 275 275 274 274 272 274 275 276 277 277 277 277 277 278 279 280 281 281 281 280 282 281 282 283 284 284 284 285 286 286 286 286 286 286 287 287 287 288 289 290 290 291 291 292 292 292 291 292 292 292 292 292 289 288 287 288 286 286 287 286 286
256 256 258 259 261 262 261 260 261 264 271 274 274 274 275 272 261 262 272 274 274 274 275 275 274 275 275 274 274 275 276 277 277 277 276 276 277 277 278 279 279 280 280 280 280 281 281 282 283 284 284 284 285 286 286 286 285 285 286 286 286 287 289 289 290 290 290 290 290 291 291 291 291 291 292 291 290 290 289 287 287 287 287 287 286 287
258 257 255 254 256 256 255 257 257 257 262 274 274 272 274 266 268 272 274 275 276 276 275 275 276 275 275 275 276 276 276 276 275 276 276 277 277 277 277 278 278 278 278 278 279 280 281 282 283 283 283 284 285 286 286 285 285 285 285 285 286 288 288 289 289 289 289 289 289 289 290 290 290 290 291 290 290 289 289 287 287 287 286 287 287 287
268 261 259 257 264 258 257 256 259 267 270 275 273 268 271 273 275 275 275 274 276 276 275 275 275 276 276 275 275 275 275 275 275 276 276 277 277 277 278 278 278 278 278 278 279 280 281 282 282 282 283 284 285 286 286 285 284 285 285 285 287 288 288 288 288 288 288 287 288 288 288 288 289 289 289 289 289 289 288 287 287 287 287 287 287 287
270 267 265 264 266 261 264 265 271 271 272 274 274 275 275 276 277 276 276 275 275 276 276 275 275 276 276 276 275 275 274 275 275 276 276 276 277 277 277 277 277 277 278 278 279 280 281 281 281 282 283 284 285 286 285 285 284 284 284 285 287 287 287 287 287 287 287 287 287 287 288 287 288 288 288 288 288 288 288 287 287 287 286 287 287 287
273 274 273 271 270 273 274 274 275 275 275 276 277 277 276 276 276 276 276 275 276 276 276 275 276 276 276 276 274 274 275 275 275 276 276 276 276 277 277 277 278 278 278 278 279 280 280 281 281 282 283 284 285 285 285 285 284 283 284 286 286 287 287 287 286 286 286 287 287 287 287 287 287 287 287 287 288 288 289 288 287 287 287 287 287 287
272 273 271 268 269 269 265 275 274 274 276 275 276 277 276 276 276 277 276 276 276 277 277 277 276 276 276 275 275 274 275 276 275 276 276 276 276 276 277 277 277 278 278 278 279 280 280 280 281 281 282 282 284 284 284 284 284 284 285 285 286 286 286 286 286 286 286 286 287 287 287 286 287 286 285 285 286 287 288 288 287 287 287 287 287 287
270 276 271 271 270 268 269 273 275 276 276 277 276 276 276 277 277 277 277 277 277 277 276 276 275 274 275 274 275 275 275 276 275 275 276 276 276 277 277 277 277 278 278 279 279 280 280 281 281 281 281 281 282 283 283 283 283 284 284 285 286 286 286 285 285 285 285 286 286 286 287 287 284 285 285 284 285 285 286 286 287 287 287 287 288 287
274 275 268 271 269 272 274 275 275 276 276 276 277 277 277 277 276 276 275 276 276 275 275 275 275 275 276 276 276 276 275 275 276 276 276 276 276 276 277 277 278 278 278 278 279 280 280 280 280 280 280 280 281 281 282 282 283 284 284 285 285 285 285 285 285 285 284 285 285 285 285 286 285 285 285 284 283 285 286 286 286 287 288 288 288 289
274 271 275 273 269 269 269 272 274 269 270 274 276 277 277 276 276 276 277 276 276 276 276 276 276 277 276 276 276 276 275 275 276 276 276 276 276 276 277 277 277 277 277 278 279 278 278 278 278 278 278 278 279 280 281 281 282 283 284 284 284 285 284 284 284 284 283 284 284 284 284 284 284 284 284 284 284 284 284 284 285 286 287 287 286 287
273 274 273 270 269 268 274 276 276 276 276 277 277 278 277 278 277 276 276 276 276 277 276 276 275 275 276 276 277 276 275 275 276 276 275 275 276 276 276 276 275 275 276 276 275 275 275 275 276 276 276 277 278 279 279 280 280 281 281 282 283 284 284 284 283 283 282 282 282 283 283 283 283 283 283 283 284 284 284 284 284 286 286 286 285 286
Wind_Speed
2 6 7 8 8 4 4 4 8 10 11 8 8 3 3 3 4 3 3 7 3 3 10 13 16 18 14 13 10 10 2 4 5 6 8 10 12 14 9 7 8 9 12 7 9 11 11 11 11 10 8 8 7 9 10 11 13 13 14 12 14 11 11 11 11 11 11 11 10 10 12 13 11 10 9 9 9 9 10 10 10 10 9 9 10 10
5 3 7 9 7 5 5 3 4 7 7 6 2 7 6 1 3 2 3 5 4 0 3 10 15 18 18 12 6 6 9 7 7 8 10 11 10 11 15 16 11 8 4 4 6 10 11 9 8 8 9 9 11 13 13 15 17 14 11 13 13 10 12 13 14 12 12 12 12 12 12 9 9 9 10 10 9 10 9 10 10 10 10 11 10 10
4 7 8 4 2 1 4 3 4 4 8 3 5 2 2 4 3 6 4 3 3 1 5 6 11 14 15 13 8 8 8 7 5 6 9 11 11 10 14 18 17 7 5 4 7 8 9 10 8 9 10 11 14 14 14 16 12 11 12 13 11 12 13 14 14 13 14 13 12 11 9 10 8 8 8 8 8 7 9 10 10 10 10 11 10 11
6 4 9 8 8 7 4 3 2 4 4 5 5 5 6 3 3 5 4 4 8 0 4 3 5 9 8 8 12 13 13 8 5 6 6 7 10 11 12 14 14 15 15 13 10 9 10 8 8 8 11 13 12 12 12 13 14 12 13 13 13 14 14 13 14 16 14 11 10 9 8 7 8 7 6 8 8 8 9 11 10 10 10 11 11 11
8 5 3 7 3 5 7 6 2 2 6 4 6 6 5 2 3 4 3 5 8 5 1 4 7 8 5 4 4 7 8 10 10 8 6 5 7 8 7 8 9 16 17 18 18 13 9 9 10 12 11 10 11 13 14 14 14 12 17 17 17 15 14 13 13 14 10 8 7 8 4 3 4 4 6 7 10 11 11 10 11 13 11 11 11 10
9 8 4 6 1 2 2 3 3 2 5 3 3 5 5 1 3 2 4 6 5 5 6 5 3 8 3 7 8 4 4 8 6 11 14 10 6 5 5 8 8 9 10 14 17 18 12 8 8 8 11 13 12 13 14 13 14 15 15 14 14 13 12 13 14 12 10 10 11 10 10 10 11 11 11 13 16 14 14 16 11 7 11 11 10 10
5 4 3 9 8 6 5 4 2 4 0 1 2 3 7 6 4 1 3 2 1 3 2 6 2 6 5 4 3 4 6 9 6 7 10 12 8 5 7 7 8 10 11 11 12 8 7 9 6 6 8 11 12 14 12 11 12 14 14 12 14 13 13 13 11 11 10 11 11 14 15 14 13 14 13 14 11 8 8 6 8 9 8 9 10 10
2 9 4 1 7 8 6 5 5 7 4 3 3 2 5 0 4 4 6 4 4 2 2 3 1 4 6 9 5 3 4 8 7 7 8 8 9 8 6 8 7 7 7 8 11 12 8 7 8 12 9 10 14 14 11 11 12 14 15 13 13 12 12 11 10 11 12 12 12 13 13 12 13 14 16 12 8 5 4 7 8 6 7 7 8 9
1 6 3 9 3 5 6 3 7 9 5 3 7 4 2 1 3 3 5 5 3 3 10 5 1 3 3 2 3 4 5 5 6 6 7 8 7 8 10 7 7 8 7 7 7 7 12 10 10 12 14 16 15 11 12 12 11 13 13 13 11 11 10 9 10 11 12 13 13 13 12 11 11 13 13 6 5 6 6 6 5 7 7 6 7 8
0 2 3 4 4 3 3 5 9 10 5 2 7 3 3 2 1 2 4 5 0 3 7 9 2 4 8 3 2 1 3 5 5 7 7 6 7 7 7 9 7 4 6 7 8 8 8 11 8 11 12 10 11 13 13 10 11 12 10 9 11 12 11 10 10 11 13 14 12 11 12 14 13 11 10 6 6 6 6 8 8 7 7 7 7 8
8 0 1 2 2 3 3 3 1 2 1 2 4 2 1 1 1 2 3 3 4 1 7 9 6 6 7 4 8 4 4 5 4 4 4 5 5 6 6 6 7 7 6 7 8 8 9 10 9 4 8 10 8 6 8 10 11 11 10 12 13 14 11 10 12 12 14 14 14 14 15 16 16 14 12 9 8 7 6 8 9 8 8 6 7 7
4 3 2 2 1 2 1 2 4 2 3 1 1 1 1 1 2 2 2 2 3 5 8 10 9 9 9 3 3 2 3 1 5 5 6 6 7 8 7 7 7 8 8 7 7 8 8 7 7 5 7 9 9 6 7 9 9 9 10 10 13 13 14 14 13 12 13 13 14 15 15 16 17 15 12 12 12 11 11 10 9 6 5 6 7 6
4 5 2 3 1 7 4 2 3 4 3 3 3 2 4 1 3 1 2 1 5 8 3 3 5 1 10 8 4 7 6 5 4 4 6 7 8 9 8 9 8 7 6 6 7 8 8 7 8 7 8 6 5 7 9 9 9 9 10 11 13 15 14 13 12 14 15 13 15 15 16 16 15 14 14 13 12 10 10 9 9 7 8 6 6 8
7 2 6 10 1 2 3 5 4 4 4 2 1 2 4 0 1 3 3 1 1 4 3 1 3 5 3 5 12 14 14 10 8 7 7 7 8 8 8 6 5 6 6 6 6 6 7 7 7 6 6 6 6 7 9 7 7 8 9 10 12 15 12 11 11 13 14 17 17 15 15 15 13 14 13 12 12 11 9 9 9 9 9 9 11 10
7 8 7 9 5 6 3 4 1 2 1 2 1 0 1 2 1 2 1 1 2 0 4 1 5 6 4 7 3 8 3 7 10 11 9 7 6 6 6 8 8 8 8 8 8 7 7 8 7 7 7 8 9 10 10 8 8 8 8 9 12 12 10 11 13 13 15 15 15 13 14 14 12 13 12 12 11 10 9 8 9 10 9 10 10 11
2 6 10 3 7 4 7 8 1 1 2 1 3 1 3 3 0 3 2 1 1 2 3 1 3 3 5 0 5 3 3 5 11 11 11 12 11 9 9 10 9 9 9 8 7 8 7 6 6 6 7 8 9 10 8 6 6 7 10 11 12 14 14 13 14 14 15 16 14 15 15 16 15 13 11 10 9 10 10 11 11 12 11 10 9 8
4 5 3 13 4 2 5 9 4 2 3 3 2 1 1 2 1 1 2 2 2 4 5 3 3 7 3 7 5 9 7 8 9 10 10 9 9 9 9 8 8 8 9 8 7 7 9 10 9 8 7 7 7 7 6 6 5 7 8 7 9 12 11 11 12 14 13 13 12 14 15 14 13 14 14 14 15 15 13 11 11 10 10 8 7 8
7 11 8 5 11 5 4 3 2 2 0 2 2 4 5 3 2 1 1 2 0 3 2 4 6 6 2 5 5 11 10 9 9 7 5 7 7 8 6 6 7 8 7 7 6 5 5 5 8 9 8 6 7 8 9 10 7 5 7 8 10 11 12 13 13 12 12 13 13 14 15 15 15 15 15 15 14 13 11 10 9 8 8 9 10 9
2 7 3 1 4 10 12 3 2 2 4 3 4 2 3 3 3 1 1 4 3 2 3 1 6 4 4 4 7 10 9 8 8 9 12 12 10 8 7 8 8 7 8 9 9 8 9 9 9 9 9 11 10 6 7 9 10 8 6 7 9 12 13 14 11 11 11 12 11 11 13 14 14 14 14 13 13 10 10 11 10 10 11 8 7 7
3 2 5 0 10 11 7 4 5 9 7 1 1 4 1 1 2 3 1 2 4 5 3 3 6 3 1 1 0 2 2 6 9 10 9 10 10 8 7 8 8 9 9 9 10 10 11 11 9 10 11 12 14 14 10 7 5 7 10 9 8 8 8 7 9 9 9 11 11 12 11 12 12 13 12 12 11 11 11 11 10 10 8 11 9 9
3 2 5 7 8 6 5 3 1 3 6 7 7 6 5 2 2 1 2 2 1 2 2 3 5 3 4 4 3 2 2 3 6 10 9 8 9 10 8 8 9 9 9 10 10 11 13 14 14 11 9 10 10 9 10 10 9 9 7 8 10 10 10 10 10 9 10 9 10 12 12 13 12 14 13 12 11 12 12 11 10 10 10 7 9 9
1 1 5 10 10 5 6 1 1 1 0 1 2 7 7 7 8 6 2 3 4 3 3 2 7 7 6 5 6 4 2 4 5 8 10 8 10 10 10 11 10 10 10 10 10 11 13 14 14 14 12 10 10 10 12 12 11 10 8 8 8 8 9 10 10 10 11 10 10 11 12 13 12 12 11 11 12 12 12 11 11 11 8 9 10 9
0 3 2 6 4 10 12 15 3 3 3 1 5 7 6 3 4 3 2 4 5 2 0 2 1 11 3 5 5 3 6 13 11 10 11 10 9 11 10 8 9 7 7 9 10 11 11 11 11 10 11 10 10 10 9 9 10 11 12 11 9 8 10 9 10 9 8 8 9 11 12 12 11 10 10 12 11 12 12 11 10 9 10 11 10 10
3 3 5 5 4 8 7 3 4 3 2 4 4 4 4 5 4 2 2 4 3 2 3 2 2 10 3 2 3 4 11 12 11 7 11 12 11 10 11 13 12 13 13 10 7 8 9 8 8 9 11 11 11 11 12 10 9 9 10 10 10 10 12 9 7 7 6 7 9 11 11 11 11 11 10 12 12 13 13 12 11 9 11 12 10 10
4 1 1 4 7 7 5 6 1 2 4 3 3 2 2 3 3 1 0 1 0 3 6 0 5 9 3 3 11 15 13 11 12 10 8 13 12 12 12 12 13 12 12 13 12 10 10 10 11 11 11 11 11 10 11 11 10 10 11 10 9 10 9 9 6 5 6 5 7 6 7 9 9 9 11 12 11 12 13 12 11 9 11 9 9 9
3 2 1 1 2 3 6 5 6 8 9 6 1 1 3 4 4 4 2 2 1 1 5 1 7 13 15 14 16 17 14 10 8 10 10 7 11 13 14 13 13 13 12 12 12 11 12 10 10 11 12 12 12 11 11 11 10 10 10 11 8 8 9 10 8 7 6 6 7 8 7 8 7 9 11 11 10 11 11 9 7 7 6 7 9 7
1 1 3 4 5 7 8 7 3 4 7 9 11 8 7 1 2 3 3 3 6 1 2 10 13 18 21 21 15 18 15 13 12 14 15 15 15 13 10 11 11 12 12 12 12 12 10 10 12 12 12 12 11 11 11 10 11 10 10 11 10 6 6 8 8 8 6 6 6 7 8 8 9 10 10 10 11 10 8 8 7 7 8 8 7 7
2 3 3 5 10 11 10 12 11 7 12 12 14 12 6 6 7 6 6 9 2 2 11 12 10 10 17 16 15 18 17 14 12 12 14 14 13 13 14 12 12 12 13 12 13 15 15 14 12 12 13 14 14 13 12 11 9 9 9 10 11 10 8 7 6 7 6 6 6 7 9 8 7 7 9 8 7 8 8 7 6 8 7 6 8 9
1 2 3 3 7 8 8 11 9 9 9 11 11 11 12 10 7 8 12 12 7 8 14 12 5 10 17 18 17 16 13 12 14 14 10 11 12 12 14 16 14 12 14 15 15 15 15 16 15 15 14 14 15 15 15 14 13 12 11 9 8 9 10 7 6 7 6 6 7 9 7 4 3 5 7 6 7 7 8 8 7 6 6 7 8 8
1 5 4 1 8 10 11 11 11 13 12 11 11 11 11 12 13 13 14 9 10 14 14 15 16 17 19 17 17 16 12 10 10 9 11 14 14 13 14 15 15 14 13 15 16 17 16 17 16 16 16 16 16 17 17 15 15 14 13 14 13 11 11 8 8 7 7 6 8 7 5 5 5 5 6 7 9 9 7 6 6 6 6 8 8 7
3 5 10 6 4 7 10 8 8 9 9 11 11 10 13 15 12 10 9 10 10 11 14 17 18 20 14 7 9 8 7 8 12 14 14 14 15 15 13 13 13 14 14 15 16 17 17 17 16 17 17 17 17 18 17 16 15 15 14 12 12 12 12 8 10 9 8 9 8 6 6 6 6 5 7 9 8 6 5 6 5 6 6 6 6 7
4 5 4 4 7 3 1 4 6 8 10 11 13 16 15 11 7 7 5 5 4 8 11 10 10 12 6 10 7 11 13 10 10 13 14 13 15 14 12 10 13 15 16 16 15 15 15 17 17 17 17 17 17 16 16 17 17 15 15 14 13 13 11 10 9 9 10 9 8 7 6 6 6 6 8 6 8 7 6 5 5 6 6 5 6 6
2 2 4 4 7 5 2 3 12 13 10 6 6 5 7 2 2 3 5 4 8 8 11 7 11 3 5 5 8 9 13 14 11 10 13 15 13 10 8 10 11 14 15 16 15 15 15 14 14 15 15 14 15 15 16 16 16 16 15 15 14 13 12 11 10 10 10 10 8 8 6 6 6 8 8 7 6 4 4 5 5 5 6 7 5 4
0 4 3 2 3 6 5 9 10 7 7 5 3 3 1 4 7 11 12 11 12 5 8 4 3 5 7 9 9 10 11 12 11 10 9 12 9 6 10 11 11 13 15 16 16 14 14 15 14 13 13 14 14 13 13 12 13 14 14 13 12 11 12 11 12 9 11 11 9 7 6 6 7 8 7 5 3 3 4 5 7 6 5 5 6 7
3 2 3 2 5 6 7 10 8 5 7 4 4 8 10 8 5 8 11 8 6 4 4 6 7 8 5 4 5 8 11 13 11 11 11 12 3 5 10 15 17 16 16 16 18 18 16 14 16 17 16 14 14 14 15 15 13 15 15 15 16 13 11 11 11 11 10 11 12 9 6 5 6 7 5 3 3 3 4 6 5 6 7 8 9 9
5 5 3 3 4 5 3 3 4 4 1 8 13 11 5 1 1 5 4 3 4 4 3 3 5 5 5 5 5 6 10 15 13 6 10 7 2 8 15 15 16 17 19 17 17 17 17 16 15 15 16 15 13 13 13 14 14 14 16 15 14 15 13 12 11 11 9 10 11 11 11 6 6 6 4 4 4 4 6 7 8 9 7 6 5 4
8 2 4 5 4 5 1 4 10 11 19 10 5 1 1 1 3 3 6 2 3 1 6 7 9 9 10 8 8 9 11 13 13 8 2 1 11 15 15 17 18 18 16 18 17 16 15 14 15 15 14 14 14 13 12 13 13 14 15 15 15 15 16 14 13 12 10 10 10 11 10 9 8 7 5 5 5 7 8 8 9 7 5 7 7 8
9 8 5 2 3 3 4 6 7 7 10 3 2 0 0 3 3 5 3 6 3 1 3 8 10 9 11 10 11 11 11 13 15 13 3 3 8 12 13 14 17 19 19 16 15 16 17 16 15 16 14 16 16 13 12 11 12 14 15 15 14 15 16 16 16 14 10 9 9 10 10 10 9 9 7 6 8 10 9 7 4 5 6 9 10 9
7 8 7 6 5 5 4 5 6 5 11 2 5 3 3 2 4 3 2 12 3 2 5 8 12 11 10 12 13 11 10 10 12 12 8 8 10 9 14 16 16 17 18 16 14 16 19 21 20 18 17 15 16 15 12 13 13 12 13 15 15 14 15 16 15 14 14 13 9 8 9 9 9 10 9 8 10 9 8 9 9 5 4 7 7 6
6 6 6 8 7 5 4 6 8 4 7 1 2 2 3 5 3 7 10 5 2 8 10 12 15 14 14 12 10 11 9 12 14 14 12 13 12 13 13 16 17 17 16 16 17 18 19 19 20 22 21 19 18 14 11 12 13 14 13 13 13 15 15 15 15 14 14 14 11 9 9 8 9 10 10 11 10 7 8 5 4 6 9 6 6 7
3 4 6 8 7 11 11 8 4 7 9 8 11 3 4 2 1 2 11 5 7 11 11 12 14 13 12 13 10 12 10 10 14 14 12 14 18 17 12 10 14 14 14 16 18 20 19 19 18 18 20 18 18 14 10 9 12 15 15 14 13 16 16 13 13 14 14 13 13 11 9 8 8 11 11 10 10 7 5 5 6 5 6 7 6 5
3 0 3 1 8 10 7 7 10 9 9 6 4 1 1 3 3 10 2 7 12 13 14 12 15 14 12 14 13 13 15 15 13 10 12 14 16 18 17 14 13 14 14 14 16 17 17 18 18 19 20 19 18 14 11 10 13 14 15 15 17 16 13 12 13 12 13 13 13 13 12 12 10 9 10 9 7 7 8 6 6 7 7 7 6 7
5 1 4 4 3 2 1 3 4 9 4 2 0 3 2 4 5 3 10 14 11 15 15 15 13 15 12 15 16 17 17 16 13 13 15 16 16 18 18 17 16 15 16 17 17 16 16 16 17 17 19 19 18 14 12 11 14 16 15 15 19 15 10 11 12 12 13 13 13 12 12 12 12 11 8 8 7 8 9 6 7 7 7 8 8 8
7 3 3 5 6 5 5 5 7 8 2 3 2 3 2 4 6 9 9 15 13 10 12 12 12 11 12 15 18 18 16 15 14 15 17 17 17 17 17 17 17 15 15 15 15 16 16 15 15 17 19 20 18 15 13 12 15 16 18 20 17 11 9 10 11 12 13 13 13 13 10 10 11 11 9 9 8 8 8 8 8 8 8 9 9 8
10 9 6 6 2 6 8 7 9 4 4 5 2 7 9 12 11 11 11 12 14 13 9 11 14 14 13 15 16 16 15 13 16 17 18 18 18 18 18 18 18 17 17 16 17 16 14 14 16 18 20 20 20 17 14 12 13 18 22 20 15 10 10 12 12 12 13 14 13 13 11 10 9 11 11 9 7 8 9 8 8 8 8 8 8 8
5 12 7 5 13 7 11 16 15 15 14 15 13 11 11 10 8 8 12 14 12 13 9 11 13 15 15 13 13 12 13 15 18 18 18 18 18 17 17 17 17 17 16 16 15 15 14 15 16 18 19 20 20 19 15 13 12 17 22 20 17 12 10 11 13 14 15 14 12 12 12 12 11 10 10 10 8 9 9 9 9 9 9 9 9 10
6 6 6 9 5 5 13 8 11 16 13 8 11 10 9 8 11 11 13 13 13 12 12 10 12 13 14 13 13 15 17 17 18 18 17 16 17 17 17 17 17 17 17 17 16 14 15 15 17 17 17 19 20 19 17 16 15 15 17 19 17 14 13 13 13 14 14 14 13 12 11 11 11 9 8 8 8 8 8 7 8 8 9 10 10 11
5 8 11 13 9 12 18 17 17 16 16 15 13 13 14 14 13 12 11 11 11 10 10 12 10 11 9 11 13 15 18 17 18 18 17 16 16 15 16 16 17 16 16 16 15 14 15 16 17 17 17 18 19 19 19 18 18 18 17 17 16 14 14 15 15 13 13 15 13 12 11 11 13 12 8 8 8 8 8 8 9 10 12 13 13 13
6 6 9 1 6 15 16 18 18 17 18 16 16 13 12 12 11 10 8 11 12 12 13 11 9 12 12 14 15 16 17 18 17 18 18 16 16 15 16 16 17 16 15 16 16 16 15 15 17 18 19 20 20 19 19 21 21 19 17 15 15 14 15 17 17 15 15 14 11 12 12 10 10 9 8 8 8 9 10 11 11 12 12 10 9 11
6 14 10 9 13 14 12 13 10 12 14 12 10 10 10 8 8 12 14 15 15 15 14 15 14 12 12 13 14 14 16 16 16 16 18 16 16 17 16 16 16 17 17 17 15 16 17 17 18 19 20 20 19 19 19 21 21 19 17 14 14 14 15 17 17 16 16 14 11 11 11 10 10 9 8 8 8 8 8 7 8 9 10 9 8 10
11 12 7 12 13 14 14 16 14 16 18 17 15 12 10 10 12 15 16 17 17 15 14 15 16 15 15 14 12 13 14 15 17 16 17 15 16 16 16 16 16 16 17 17 17 19 18 18 18 19 20 20 19 18 18 19 21 21 19 15 15 15 15 15 14 15 16 14 12 11 10 10 10 9 8 8 8 7 8 7 5 7 8 8 7 8
Wind_Direction
165 217 223 229 241 224 251 283 271 301 300 287 285 286 209 202 256 276 261 254 350 275 227 225 235 242 242 234 231 241 211 212 221 222 228 226 215 212 205 207 220 222 231 222 209 225 233 219 206 200 199 209 210 207 202 203 207 204 201 195 202 195 192 193 195 198 198 201 203 205 208 211 209 211 211 214 215 215 218 216 213 209 209 207 203 205
59 313 249 242 235 201 164 220 310 303 280 266 176 210 234 194 265 252 240 305 355 241 267 231 235 237 238 232 211 236 249 224 211 208 219 231 232 216 221 244 233 228 251 235 228 229 235 227 207 194 194 195 202 211 205 207 209 205 202 205 203 188 197 200 198 197 201 204 206 202 209 208 211 209 209 218 216 218 221 218 217 214 210 209 207 203
257 250 261 175 236 175 150 219 259 309 314 246 260 171 193 253 231 280 285 311 322 354 251 247 241 246 244 237 211 223 229 240 212 204 213 218 231 223 220 220 220 217 235 232 241 237 229 228 211 196 203 205 211 211 210 215 207 201 205 212 202 202 200 203 199 196 206 205 205 204 207 202 213 217 220 225 225 219 221 219 218 217 215 211 211 206
289 238 270 237 179 200 246 210 202 258 278 261 223 252 224 198 101 268 263 4 329 118 279 314 273 260 260 240 229 225 227 231 222 212 221 215 228 226 217 212 210 219 241 254 240 232 240 233 221 205 211 210 210 210 214 214 208 205 208 208 205 209 207 204 202 204 205 198 201 207 206 207 209 212 210 221 222 221 217 221 214 216 211 210 213 208
260 292 349 19 294 197 237 255 208 230 257 232 236 234 243 187 225 171 254 355 317 324 338 315 293 282 225 240 221 239 230 228 235 245 234 240 241 240 230 238 224 212 207 222 242 238 210 210 212 208 211 213 213 212 214 209 206 208 210 207 205 209 211 210 207 206 195 181 186 194 179 169 200 210 206 213 227 219 219 223 218 217 208 213 214 208
270 262 241 270 210 265 236 255 220 220 259 332 289 290 277 170 229 327 322 16 16 321 18 13 316 258 200 220 203 224 194 214 220 230 246 238 229 245 246 229 224 233 230 219 218 228 220 206 202 202 207 211 216 217 218 212 211 211 215 210 206 209 211 213 211 201 187 192 189 179 190 195 205 213 208 215 219 211 209 216 218 212 212 214 215 212
285 312 244 236 218 201 208 208 184 143 58 16 261 336 270 231 185 179 1 39 331 210 287 33 171 281 6 324 260 214 189 208 202 204 229 250 238 205 231 230 225 216 223 236 240 233 234 241 232 213 210 214 220 224 218 215 215 217 222 215 209 208 210 210 205 189 190 195 196 197 202 205 207 213 221 224 226 219 224 221 214 217 211 213 214 215
291 313 353 158 193 199 189 225 190 177 131 242 176 59 31 140 222 216 217 184 240 304 293 73 50 296 284 281 277 273 243 211 203 204 220 227 250 247 214 228 235 231 228 229 241 244 218 218 206 235 221 217 221 220 218 222 215 214 218 215 213 213 212 206 195 189 193 199 200 203 208 210 212 216 228 223 222 210 197 202 215 209 212 207 210 212
55 303 16 9 348 177 216 214 171 202 159 202 163 156 111 336 238 211 181 191 212 216 282 301 340 287 247 248 263 178 233 271 252 225 214 222 235 250 259 237 225 240 235 225 236 240 252 224 207 222 235 232 224 225 219 220 221 222 216 214 214 217 217 210 191 191 195 203 203 205 208 214 222 226 235 213 175 193 187 204 199 201 206 198 200 203
230 230 347 335 293 209 221 233 185 188 189 215 135 134 114 90 59 168 167 164 117 120 253 262 166 257 266 248 236 304 203 224 233 248 251 235 238 242 249 264 258 223 240 245 233 231 233 255 219 210 227 228 220 219 215 216 218 221 216 211 211 216 210 206 197 193 198 202 202 207 210 216 223 224 234 213 202 196 183 208 206 200 200 199 198 200
285 110 231 293 286 346 275 324 337 250 22 116 92 85 77 64 99 45 86 111 65 57 241 231 224 165 286 177 186 190 221 194 244 262 270 273 268 261 255 253 262 261 247 235 238 238 233 237 252 208 216 233 235 227 219 217 220 219 210 211 211 217 213 201 200 196 202 201 201 208 210 214 223 223 224 218 218 205 192 209 210 202 205 191 202 193
320 308 59 268 290 297 355 344 360 359 334 88 69 117 186 210 78 81 28 39 108 268 245 210 212 164 227 302 235 207 299 248 203 225 251 261 257 260 263 257 254 255 257 259 256 255 245 246 247 244 238 233 232 224 216 219 217 216 214 210 212 214 207 210 206 194 205 204 210 214 212 215 219 220 219 219 220 213 211 212 216 197 187 202 201 197
330 11 290 294 230 23 4 41 326 51 32 49 137 108 116 257 80 310 152 65 200 210 275 206 167 350 252 247 272 291 271 266 257 237 246 244 250 253 257 264 268 270 271 269 267 266 270 264 263 250 252 259 251 238 230 222 214 214 216 212 214 219 210 209 203 201 203 208 214 212 213 218 220 221 221 221 222 217 213 212 214 188 204 196 198 207
308 299 354 359 335 32 41 21 349 19 6 29 356 113 110 172 132 230 188 253 51 322 337 106 191 223 264 257 202 235 249 248 257 250 247 255 256 259 262 269 278 284 281 272 263 270 274 272 269 267 262 257 250 243 243 243 234 228 221 215 217 225 213 205 201 207 205 211 213 210 212 216 215 222 222 223 222 219 215 208 212 207 208 206 209 206
5 336 352 15 349 341 24 63 279 240 300 228 293 142 195 69 233 287 69 145 193 51 331 283 113 241 145 246 235 229 289 272 252 249 246 246 257 284 316 335 322 311 306 310 307 299 294 291 283 278 265 251 242 237 233 224 221 223 227 223 221 228 219 210 209 205 207 213 214 212 213 216 214 220 220 222 221 219 212 207 211 214 211 212 214 209
294 241 270 351 280 325 355 346 198 252 234 248 200 78 57 251 60 193 194 141 40 338 4 29 205 203 205 218 313 215 249 13 13 13 18 5 2 2 11 4 359 354 352 353 348 341 339 333 335 333 326 322 321 315 313 289 257 224 223 220 219 220 219 214 211 210 209 212 210 209 210 214 214 215 218 222 219 221 214 211 210 216 212 214 216 215
322 312 334 330 28 330 337 343 324 20 10 291 23 91 190 264 124 330 351 231 116 57 238 167 310 270 308 316 356 21 62 32 27 20 27 21 10 21 12 354 350 345 343 348 352 347 343 347 348 338 326 320 312 304 291 279 277 277 276 262 237 229 229 224 220 218 216 217 214 214 214 215 214 215 214 217 216 216 215 213 213 216 217 211 211 213
340 288 315 18 343 310 332 332 288 38 287 3 21 330 299 131 109 107 276 36 5 169 265 128 212 267 25 286 335 18 32 22 24 16 5 22 15 14 347 342 337 336 324 319 333 349 347 345 340 339 334 322 303 297 299 294 278 249 241 242 249 249 236 230 223 219 217 215 216 218 215 215 214 214 217 218 220 217 213 215 215 215 212 207 207 208
329 306 315 82 284 310 342 41 5 354 49 22 277 287 20 344 24 336 45 356 1 350 300 284 232 260 179 261 10 3 12 4 10 356 11 2 357 347 338 333 333 335 340 342 340 342 348 347 345 343 337 334 329 307 285 287 291 283 259 237 235 242 239 239 235 225 220 214 217 220 219 218 217 218 219 221 221 216 213 215 211 211 216 213 203 202
319 321 305 295 12 317 327 43 1 330 340 347 276 14 19 86 320 19 201 7 80 289 19 308 62 266 1 289 132 316 328 2 4 15 358 343 336 333 332 333 332 335 335 332 333 336 337 338 342 343 342 338 332 329 322 302 283 277 280 278 260 252 256 259 253 245 235 226 221 219 218 218 218 219 221 220 217 215 216 216 211 213 210 212 204 206
344 55 292 308 339 345 360 13 19 27 336 346 22 21 11 358 266 168 7 98 109 287 33 324 329 271 250 198 181 236 258 35 22 355 348 339 334 331 333 334 330 332 333 331 330 332 334 334 335 339 339 328 323 319 318 327 322 302 295 284 275 266 257 246 241 231 230 228 230 229 223 219 214 216 216 217 214 216 219 219 214 213 210 201 208 203
336 12 288 314 337 357 275 207 9 265 230 77 45 43 4 2 2 33 315 50 12 57 305 40 270 272 241 172 191 206 319 5 11 357 342 343 337 338 338 337 337 334 335 331 328 330 331 332 332 331 333 330 330 329 332 329 329 326 311 280 268 256 252 247 242 228 229 220 220 223 226 226 221 217 213 213 215 217 219 216 215 213 198 203 211 198
65 289 302 305 283 287 292 303 327 248 190 159 67 22 15 14 45 58 10 311 4 252 193 196 323 273 239 185 161 75 348 353 359 358 347 345 344 340 338 337 330 326 322 326 325 326 324 322 320 319 316 319 320 319 323 328 330 323 319 314 298 279 266 248 251 245 236 226 218 222 223 225 223 216 211 212 215 217 218 218 217 205 202 210 210 204
97 41 314 272 289 297 300 318 9 31 94 34 33 27 26 32 55 3 248 294 263 308 16 263 190 268 342 48 70 3 356 341 339 3 347 340 337 337 336 338 337 333 333 332 328 319 316 314 314 320 326 328 331 331 328 326 322 320 319 316 311 303 295 296 287 285 272 245 233 227 225 224 224 217 212 213 214 215 217 215 216 205 208 212 208 206
339 247 137 338 335 337 343 343 9 323 50 78 356 326 67 50 12 271 233 310 5 233 225 145 249 275 234 32 346 332 324 325 326 338 348 331 330 331 333 333 332 331 329 332 335 332 326 329 331 327 324 324 325 325 323 325 325 323 320 318 315 305 299 294 291 293 284 278 267 253 239 237 228 221 218 217 216 217 218 215 215 206 209 209 209 211
228 281 61 29 18 342 314 314 298 325 335 335 151 17 16 357 322 3 0 344 27 276 51 199 263 264 291 316 313 307 306 311 318 325 329 325 322 329 332 332 331 331 329 329 330 334 334 329 325 327 327 326 325 323 321 321 321 320 317 313 311 304 304 295 296 283 267 254 252 250 237 238 234 230 226 221 220 221 221 216 213 206 210 204 213 203
188 258 233 246 204 218 229 262 263 322 311 301 304 312 302 277 256 227 239 234 229 234 265 242 237 274 286 294 305 302 312 322 335 334 333 332 331 329 326 324 328 326 327 329 328 327 328 335 334 328 325 324 321 320 318 317 317 316 314 311 313 307 292 293 294 285 275 261 244 250 241 232 227 227 229 225 222 221 216 212 207 195 205 199 201 195
22 290 226 235 252 251 262 266 287 307 291 290 297 297 300 288 278 263 223 236 107 36 268 254 244 251 278 290 294 299 310 325 329 332 328 328 327 326 322 321 322 323 326 331 333 337 337 335 336 335 330 329 328 323 318 318 311 306 306 306 308 313 310 295 281 277 270 263 254 243 245 237 237 241 238 236 233 224 218 211 199 203 200 176 194 197
53 270 256 234 251 264 272 283 296 297 276 282 286 289 288 280 256 235 237 238 232 225 250 273 320 296 283 283 289 296 312 332 324 325 326 313 317 323 325 324 326 330 331 336 339 342 343 342 343 340 339 336 335 333 331 328 326 324 319 306 298 307 307 301 281 276 265 262 257 254 252 268 276 271 272 261 243 229 220 211 207 200 188 191 201 201
339 246 253 238 298 300 291 287 285 281 284 282 274 268 262 258 251 241 252 247 223 243 254 275 280 268 267 279 289 301 328 336 331 337 338 337 333 334 327 324 327 336 346 349 350 349 348 348 347 346 345 345 342 338 335 332 329 328 327 323 319 317 308 319 300 288 280 265 260 265 267 256 244 232 236 240 236 233 225 216 208 193 193 201 202 196
65 291 5 338 326 291 280 269 267 267 271 278 274 267 256 250 258 256 259 262 252 262 261 263 266 271 275 293 312 333 359 356 352 351 341 330 327 327 330 329 340 350 350 349 348 346 344 344 345 345 344 342 339 336 332 329 328 327 326 323 321 317 312 316 306 305 295 285 277 272 272 266 253 237 235 233 238 239 228 220 202 197 202 197 188 184
35 276 14 23 341 295 288 292 293 295 287 277 275 268 266 266 261 259 229 230 181 235 250 258 268 271 328 35 13 351 345 3 351 338 335 328 322 328 337 358 353 346 344 343 341 341 343 341 341 342 340 337 334 333 331 329 327 326 326 325 323 318 315 311 303 299 295 284 288 279 264 255 253 239 239 234 233 226 216 200 191 200 197 185 186 191
187 304 330 334 314 265 245 314 324 309 306 301 280 242 238 234 212 251 250 224 218 236 268 267 261 357 7 12 17 356 339 337 344 338 326 316 317 325 347 354 349 341 339 337 337 336 336 337 334 332 332 331 330 329 327 325 323 323 323 323 319 317 315 310 303 299 294 289 284 276 265 254 242 239 237 231 235 227 195 188 193 194 185 194 185 161
169 226 256 263 263 293 326 327 307 320 318 264 229 131 131 322 294 289 283 278 271 204 244 261 314 1 10 6 6 345 331 324 319 312 298 290 308 327 344 345 343 338 334 332 330 330 330 329 329 327 324 322 320 321 318 317 313 312 316 315 315 317 313 310 304 295 291 293 286 270 253 239 236 239 237 219 206 197 209 199 204 193 176 153 157 179
244 271 257 247 267 289 332 318 304 268 246 249 307 306 312 301 272 262 274 270 281 346 348 8 351 351 336 338 329 321 311 305 307 304 301 289 309 345 346 343 341 338 330 327 326 326 327 327 324 325 325 327 326 324 325 323 323 321 321 325 323 321 317 310 300 297 292 292 293 292 264 239 235 246 243 204 176 186 222 221 207 187 182 177 180 181
226 213 239 246 237 267 257 257 303 238 229 298 295 295 309 316 223 342 319 56 50 86 40 350 329 307 319 322 322 322 313 309 303 281 269 285 278 350 353 344 336 331 326 323 320 319 323 324 322 320 318 319 321 321 321 317 319 321 318 320 319 319 318 311 304 297 296 293 292 296 300 285 261 246 225 199 186 194 218 224 211 198 187 175 177 162
200 189 240 274 211 264 282 258 245 303 301 281 268 34 19 329 320 345 300 272 208 205 23 344 329 327 328 331 329 329 324 314 312 313 246 330 9 1 343 331 326 320 316 314 315 313 314 315 314 314 313 313 315 317 317 315 317 317 317 319 319 319 315 316 311 305 300 293 291 296 297 298 285 268 234 205 198 210 215 216 224 212 178 174 181 177
197 190 219 228 268 190 316 325 315 314 285 277 193 261 342 269 261 263 195 274 125 271 12 339 320 320 321 323 331 333 332 326 317 315 346 25 4 339 330 322 321 317 314 310 311 314 316 316 314 312 312 311 312 314 314 315 315 316 316 316 317 317 313 313 309 311 310 294 292 290 289 284 274 267 248 219 220 219 218 211 236 227 197 187 181 190
212 219 236 252 278 321 300 261 262 262 261 275 270 194 291 267 222 286 320 290 160 274 331 330 325 322 320 322 322 332 328 313 297 302 329 341 334 334 326 321 316 312 308 309 315 317 319 317 314 310 308 308 309 315 319 316 314 313 311 311 312 310 306 304 306 310 312 310 299 283 277 272 265 261 257 241 238 229 218 208 206 207 217 221 193 187
165 214 217 245 242 234 246 248 257 215 266 253 194 193 243 259 287 21 314 288 183 322 333 334 327 323 317 317 320 321 320 307 306 307 320 318 319 321 319 315 312 309 305 309 313 313 310 309 310 310 310 310 310 313 318 315 313 309 306 304 305 303 298 299 305 304 304 303 300 289 276 266 257 253 248 246 250 239 231 210 181 186 192 216 201 176
238 263 143 218 227 242 239 260 280 287 265 264 271 293 297 237 339 311 257 263 347 329 326 325 313 313 313 312 321 308 298 280 287 294 307 314 313 309 305 300 298 296 300 305 306 310 308 306 303 299 301 303 306 309 312 311 307 307 306 303 300 294 295 301 300 299 299 298 299 296 282 257 241 249 247 242 244 242 223 200 202 186 183 195 195 178
310 142 303 148 237 239 231 224 242 259 261 271 246 176 245 30 241 242 276 328 317 324 318 320 314 311 312 305 305 299 298 297 289 290 297 303 302 302 303 301 297 295 292 292 295 299 300 299 298 298 299 302 304 305 309 311 305 300 301 302 294 289 299 301 296 296 297 296 294 294 293 288 270 243 246 247 239 236 228 213 189 190 190 183 181 189
208 152 225 199 236 6 86 240 301 275 281 150 85 6 97 163 225 254 309 307 318 311 315 311 305 301 305 300 298 296 297 296 294 297 302 304 305 303 303 303 301 298 298 300 300 295 295 295 295 297 300 301 302 305 308 310 303 300 299 292 289 298 302 292 294 296 295 293 293 290 286 286 282 274 261 251 233 224 229 201 190 190 179 178 184 187
167 235 224 248 163 230 185 182 217 220 223 198 108 164 244 219 281 298 301 299 301 300 299 300 290 289 294 293 297 296 292 292 294 301 303 304 302 301 299 297 295 295 294 291 290 293 292 290 291 297 300 300 300 302 305 309 303 299 297 291 291 301 298 291 291 292 292 291 288 289 283 273 274 269 259 248 233 222 221 205 197 190 187 181 179 185
163 198 177 228 212 172 242 239 246 245 223 215 216 272 274 280 284 285 285 280 291 290 289 287 292 291 290 289 288 288 290 287 292 298 299 299 299 298 298 298 297 295 294 295 294 293 288 284 289 295 296 296 296 298 301 301 298 297 294 292 299 304 300 297 294 289 285 286 286 285 285 275 257 258 258 249 221 219 218 209 188 191 193 180 182 186
201 204 204 233 250 249 255 253 273 273 269 276 273 265 267 271 269 272 277 282 274 277 275 275 282 288 288 284 283 282 279 290 294 296 295 296 295 293 292 293 293 292 290 291 292 290 287 289 290 291 290 291 293 296 297 297 294 291 290 295 300 303 298 292 290 288 285 283 281 280 280 278 270 251 245 245 229 222 216 203 195 199 189 188 191 190
227 209 241 234 264 300 267 239 234 259 270 263 270 266 256 250 261 266 270 268 273 274 274 268 273 276 278 279 276 280 286 288 289 289 290 291 291 292 292 291 290 290 292 292 291 292 293 294 293 291 290 291 295 297 298 298 292 285 289 293 298 303 301 292 284 282 283 282 283 278 272 269 271 263 245 234 228 224 220 208 202 200 196 195 194 193
285 171 228 243 243 231 262 275 270 268 272 273 271 275 275 273 265 258 256 263 266 269 271 274 274 272 268 272 273 279 284 287 287 288 289 289 289 290 291 290 291 292 292 291 293 293 293 292 292 293 294 293 294 296 298 296 292 291 290 293 297 302 300 294 289 286 283 281 282 281 278 272 263 257 246 231 221 216 217 212 203 201 202 200 198 191
224 131 236 217 256 257 262 263 269 281 274 268 266 261 258 262 273 274 269 270 274 275 272 266 248 257 266 272 279 280 282 283 283 285 286 288 290 290 290 292 294 295 298 300 297 298 296 295 296 295 295 292 292 293 295 293 292 291 292 294 300 303 300 295 294 292 286 282 279 277 276 270 267 255 242 231 221 224 214 202 201 209 217 219 209 202
244 247 262 277 268 266 263 275 286 288 287 281 268 271 277 274 273 279 284 283 281 282 284 283 279 271 267 270 273 276 278 282 284 287 289 291 292 292 295 297 299 302 299 297 299 300 298 296 294 294 293 290 290 292 292 291 291 293 296 301 302 300 296 295 296 296 290 288 283 278 277 272 263 252 244 232 223 221 232 237 226 222 215 214 210 222
229 247 250 250 256 267 269 270 270 269 274 276 284 285 282 285 284 284 282 283 285 283 281 281 284 287 283 278 273 275 278 281 286 292 295 295 294 296 296 298 302 301 300 304 306 301 298 297 295 294 291 289 291 292 292 294 295 296 298 305 301 298 293 292 294 291 290 290 288 283 277 268 261 253 240 235 227 217 217 214 220 218 215 191 178 183